CW3442 Weather Reports


Display with metric or nautical units.
time (UTC)temp
F
wind
direction
speed
MPH
gust
MPH
rain 1hr
in
rain 24hr
in
rain mn
in
humidity
%
barometer
mb
20260901233550 70 113 0.0 0.0 0.00 0.00 0.00 64 1012.9
20260901230546 71 113 0.0 0.0 0.00 0.00 0.00 61 1012.8
20260901223546 73 113 0.0 0.0 0.00 0.00 0.00 58 1013.2
20260901220522 74 109 0.0 0.0 0.00 0.00 0.00 55 1013.4
20260901213603 74 74 0.0 0.0 0.00 0.00 0.00 53 1013.2
20260901210527 74 101 0.0 0.0 0.00 0.00 0.00 52 1012.6
20260901203540 75 90 0.0 0.0 0.00 0.00 0.00 51 1012.5
20260901200541 75 92 0.0 0.0 0.00 0.00 0.00 51 1012.6
20260901193535 76 256 0.0 0.0 0.00 0.00 0.00 49 1012.8
20260901190533 77 86 0.0 0.0 0.00 0.00 0.00 46 1012.9
20260901183526 77 304 0.0 0.0 0.00 0.00 0.00 46 1013.1
20260901180542 77 88 0.0 0.0 0.00 0.00 0.00 48 1013.2
20260901173531 76 94 1.0 0.0 0.00 0.00 0.00 47 1013.3
20260901170527 75 92 1.0 0.0 0.00 0.00 0.00 48 1013.5
20260901160538 75 109 0.0 0.0 0.00 0.00 0.00 53 1014.1
20260901153548 72 106 1.0 0.0 0.00 0.00 0.00 57 1014.4
20260901150541 71 123 0.0 0.0 0.00 0.00 0.00 61 1014.3
20260901143539 69 67 0.0 0.0 0.00 0.00 0.00 66 1014.2
20260901140539 68 76 0.0 0.0 0.00 0.00 0.00 69 1014.1
20260901133534 63 76 0.0 0.0 0.00 0.00 0.00 82 1014.1
20260901130533 62 92 0.0 0.0 0.00 0.00 0.00 81 1014.1
20260901123530 62 92 0.0 0.0 0.00 0.00 0.00 83 1014.1
20260901120525 59 84 0.0 0.0 0.00 0.00 0.00 88 1014.1
20260901113541 57 150 0.0 0.0 0.00 0.00 0.00 91 1013.8
20260901110540 57 173 0.0 0.0 0.00 0.00 0.00 92 1013.9
20260901103529 56 173 0.0 0.0 0.00 0.00 0.00 92 1013.8
20260901100548 57 173 0.0 0.0 0.00 0.00 0.00 92 1013.6
20260901093528 57 173 0.0 0.0 0.00 0.00 0.00 92 1013.5
20260901090541 57 173 0.0 0.0 0.00 0.00 0.00 91 1013.7
20260901083601 57 173 0.0 0.0 0.00 0.00 0.00 92 1013.5
20260901080537 58 173 0.0 0.0 0.00 0.00 0.00 91 1013.2
20260901073529 58 173 0.0 0.0 0.00 0.00 0.00 91 1013.4
20260901070537 59 173 0.0 0.0 0.00 0.00 0.00 91 1013.5
20260901063535 59 173 0.0 0.0 0.00 0.00 0.00 91 1013.5
20260901060553 59 173 0.0 0.0 0.00 0.00 0.00 91 1013.8
20260901053527 59 173 0.0 0.0 0.00 0.00 0.00 90 1013.9
20260901050536 60 173 0.0 0.0 0.00 0.00 0.00 90 1013.8
20260901043537 60 173 0.0 0.0 0.00 0.00 0.00 89 1013.7
20260901040528 61 173 0.0 0.0 0.00 0.00 0.00 88 1013.8
20260901033548 61 173 0.0 0.0 0.00 0.00 0.00 87 1013.5
20260901030538 62 173 0.0 0.0 0.00 0.00 0.00 87 1013.4
20260901023543 62 173 0.0 0.0 0.00 0.00 0.00 86 1013.4
20260901020526 63 173 0.0 0.0 0.00 0.00 0.00 83 1013.4
20260901013522 65 173 0.0 0.0 0.00 0.00 0.00 82 1013.6
20260901010555 66 173 0.0 0.0 0.00 0.00 0.00 79 1013.5
20260901003535 67 173 0.0 0.0 0.00 0.00 0.00 75 1013.3
20260901000542 68 173 0.0 0.0 0.00 0.00 0.00 72 1013.1